Main page
METAR-TAF:

METAR-TAF

Airports :

Perryton Ochiltree County Airport

Perryton, Texas, United States

latitude: 36-24N, longitude: 100-44W, elevation: 2919 ft

Current weather observation

The report was made 10 minutes ago, at 00:55 UTC
Wind 17 mph from the South/Southeast
Temperature 48°F
Humidity 43%
Pressure 29.84 in. Hg
Visibility: 10 miles
Clear sky

METAR: KPYX 220055Z AUTO 15015KT 10SM CLR 09/M03 A2984 RMK AO2 T00851030

Time: 19:05 (01:05 UTC)


TAF: missing

Weather observations and forecasts of more than 4000 airports (METAR and TAF reports).

The available stations are represented by yellow and red dots on the map.

Hover mouse over dot to see the name of the station.

Then click to see weather observations and forecasts.

To change the map : click on the green buttons with a black cross to zoom in, on the green button with a dash to zoom out, or on the green arrows for adjacent maps.


METAR-TAF: